Retour au catalogue

FENGYUN 1C DEB

ActifLEO
NORAD 31010·DEBRIS·🇨🇳 China

Lancé May 10, 1999 depuis Taiyuan Satellite Launch Center

Loading…

Prochains Passages (prochaines 24 heures)

TLE

FraisSource: Space-Track

Époque: Sep 13, 2026, 11:22 UTC

1 31010U 99025BDC 26256.47420611  .00005416  00000-0  20006-2 0  9992
2 31010 101.7187 141.8669 0107384 357.3734   2.6860 14.29893653995513

Suivez FENGYUN 1C DEB en temps réel avec AllMySat

Download on the App Store